Regional Weather Roundup
Issued by NWS Burlington, VT

Home | Current Version | Previous Version | Text Only | Print | Product List | Glossary On
Versions: 1 2 3 4 5 6 7 8 9 10 11 12 13 14 15 16 17 18 19 20 21 22 23 24 25 26 27 28 29 30 31 32 33 34 35 36 37 38 39 40 41 42 43 44 45 46 47 48 49 50
000
ASUS41 KBTV 201230
RWRBTV
VERMONT REGIONAL WEATHER ROUNDUP
NATIONAL WEATHER SERVICE BURLINGTON VT
700 AM EST MON FEB 20 2017

NOTE: "FAIR" INDICATES FEW OR NO CLOUDS BELOW 12,000 FEET WITH NO
SIGNIFICANT WEATHER AND/OR OBSTRUCTIONS TO VISIBILITY.

* THESE REPORTS ARE NOT UNDER NWS QUALITY CONTROL AND/OR DO NOT
  REPORT WEATHER SUCH AS PRECIPITATION AND FOG.

VTZ001>019-201300-
_____VERMONT_____


CITY           SKY/WX    TMP DP  RH WIND       PRES   REMARKS
BURLINGTON     MOCLDY    31  20  63 N13       30.18R WCI  21
6HR MIN TEMP:  31; 6HR MAX TEMP:  37;

MONTPELIER     CLOUDY    28  19  69 NW12      30.13R WCI  18
6HR MIN TEMP:  28; 6HR MAX TEMP:  34;

MORRISVILLE    CLOUDY    29  16  58 NW9G17    30.15R WCI  20
6HR MIN TEMP:  29; 6HR MAX TEMP:  34;

ST. JOHNSBURY*   N/A     30  18  60 MISG      30.10R
6HR MIN TEMP:  30; 6HR MAX TEMP:  35;

LYNDONVILLE*   CLOUDY    28  17  66 W13       30.11R WCI  17
6HR MIN TEMP:  28; 6HR MAX TEMP:  32;

MIDDLEBURY*    CLOUDY    30  10  42 N8G16     30.17R WCI  23
6HR MIN TEMP:  30; 6HR MAX TEMP:  36;

RUTLAND*       CLEAR     29  20  69 NW9       30.13R WCI  20
6HR MIN TEMP:  29; 6HR MAX TEMP:  37;

SPRINGFIELD    CLEAR     32  17  54 N10G16    30.11R WCI  24
6HR MIN TEMP:  32; 6HR MAX TEMP:  42;

HIGHGATE*      CLOUDY    28  20  70 NW5       30.20R WCI  23
6HR MIN TEMP:  28; 6HR MAX TEMP:  33;

NEWPORT*       CLOUDY    27  16  63 NW10      30.14R WCI  17
BENNINGTON     CLEAR     32  20  61 NW9       30.12R WCI  24
6HR MIN TEMP:  32; 6HR MAX TEMP:  42;

SUTTON*          N/A     27 N/A N/A MISG        N/A
ISLAND POND*     N/A     27 N/A N/A NW9         N/A  WCI  17
GALLUP MILLS*    N/A     27 N/A N/A MISG        N/A
UNION VILLAGE*   N/A     32 N/A N/A MISG        N/A

_____LAKE CHAMPLAIN_____


CITY           SKY/WX    TMP DP  RH WIND       PRES   REMARKS
BURTON ISLAND*   N/A     30  23  74 N9          N/A  WCI  22
COLCHESTER RF*   N/A     32  23  69 N22         N/A  WCI  19
DIAMOND ISL*     N/A     32  21  64 N17G23      N/A  WCI  21

$$

NYZ007-026>031-035-052-083-087-201300-
_____NORTHERN NEW YORK_____


CITY           SKY/WX    TMP DP  RH WIND       PRES   REMARKS
PLATTSBURGH    CLEAR     28  17  63 NW7       30.19R WCI  21
6HR MIN TEMP:  28; 6HR MAX TEMP:  37;

SARANAC LAKE   PTCLDY    22  15  75 NW7       30.13R WCI  13
6HR MIN TEMP:  23; 6HR MAX TEMP:  31;

MASSENA        CLEAR     24  17  74 W5        30.28R WCI  18
6HR MIN TEMP:  24; 6HR MAX TEMP:  32;

OGDENSBURG*    FAIR      25  21  84 NW7       30.29R WCI  17
6HR MIN TEMP:  25; 6HR MAX TEMP:  32;

POTSDAM*       CLEAR     25  21  86 CALM      30.27R
STARK FALLS*     N/A     21 N/A N/A NW3         N/A
WATERTOWN      CLEAR     22  20  92 CALM      30.28R
6HR MIN TEMP:  22; 6HR MAX TEMP:  35;

FT DRUM        CLEAR     25  19  77 NW3       30.25R
6HR MIN TEMP:  25; 6HR MAX TEMP:  33;

ALBANY         MOCLDY    35  26  69 NW9       30.17R WCI  28
6HR MIN TEMP:  34; 6HR MAX TEMP:  40;

GLENS FALLS    CLEAR     33  21  61 N9        30.17R WCI  25
6HR MIN TEMP:  32; 6HR MAX TEMP:  44;


$$
NHZ002-005-011-201300-
_____NEW HAMPSHIRE_____


CITY           SKY/WX    TMP DP  RH WIND       PRES   REMARKS
LEBANON        PTCLDY    32  19  58 N9        30.10R WCI  24
6HR MIN TEMP:  32; 6HR MAX TEMP:  40;

KEENE          CLEAR     27  22  81 CALM      30.11R
6HR MIN TEMP:  27; 6HR MAX TEMP:  43;

MT WASHINGTON  FOG        5   5 100 NW59G66     N/A  VSB 1/16WCI -26
6HR MIN TEMP:   5; 6HR MAX TEMP:  13;

PLYMOUTH       FAIR      32  18  55 NW13G31   30.09R WCI  22
6HR MIN TEMP:  32; 6HR MAX TEMP:  40;

WHITEFIELD     CLOUDY    30  16  56 NW10G20   30.08R WCI  21
6HR MIN TEMP:  30; 6HR MAX TEMP:  35;


$$

_____REGIONAL QUEBEC LOCATIONS_____


CITY           SKY/WX    TMP DP  RH WIND       PRES   REMARKS
MONTREAL       PTCLDY    25  14  63 NW7       30.23R WCI  17
QUEBEC CITY    PTCLDY    23  10  58 NW9       30.15R WCI  13
SHERBROOKE     CLOUDY    27  19  74 NW6       30.11R WCI  20

_____REGIONAL ONTARIO LOCATIONS_____


CITY           SKY/WX    TMP DP  RH WIND       PRES   REMARKS
OTTAWA         CLEAR     21  12  68 NW10      30.28R WCI  10

______KEY______
VSB  - VISIBILITY IN MILES
WCI  - WIND CHILL INDEX
HX   - HEAT INDEX
$$
NNNN




USA.gov is the U.S. government's official web portal to all federal, state and local government web resources and services.